Home > Weather > Verona > Past weeks

Flag for Italy Weather for the Past 2 Weeks in Verona, Italy

Now
52 °F

Sunny.


Feels Like: 49 °F
Forecast: 32 / 47 °F
Wind: 7 mph from Southwest

Location: Verona / Villafranca

Current Time: Feb 11, 2016 at 4:23:51 PM

Latest Report: Feb 11, 2016 at 3:50 PM


Visibility: 10 mi

Pressure: 29.74 "Hg

Humidity: 28%

Dew point: 19 °F

Location of VeronaLocation

Historic Weather in Verona — Graph

°F

Verona Temperature Yesterday

Maximum temperature yesterday: 55 °F (at 1:50 PM)
Minimum temperature yesterday: 32 °F (at 11:50 PM)
Average temperature yesterday: 46 °F

High & Low Weather Summary for the Past Weeks

 TemperatureHumidityPressure
High55 °F (Jan 29, 1:50 PM)100% (Jan 30, 7:20 PM)30.48 "Hg (Jan 30, 7:20 PM)
Low28 °F (Feb 5, 3:50 AM)28% (Feb 10, 2:20 PM)29.24 "Hg (Feb 10, 4:20 AM)
Average44 °F84%30.11 "Hg
* Reported Jan 27 2:20 PM — Feb 11 2:50 PM, Verona, Weather by CustomWeather, © 2016

Note: Actual official high and low records may vary slightly from our data, if they occured in-between our weather recording intervals... More about our weather records

Advertising

Verona Weather History for the Previous 24 Hours

 ConditionsComfort  
Time TempWeatherWind HumidityBarometerVisibility
2:50 PM
Thu, Feb 11
52 °FPassing clouds.5 mph38%29.74 "HgN/A
2:20 PM52 °FPassing clouds.5 mph41%29.74 "HgN/A
1:50 PM52 °FPassing clouds.5 mph44%29.77 "HgN/A
1:20 PM52 °FPassing clouds.6 mph41%29.77 "HgN/A
12:50 PM50 °FPassing clouds.5 mph35%29.77 "HgN/A
12:20 PM50 °FPassing clouds.3 mph37%29.77 "HgN/A
11:50 AM48 °FSunny.2 mph43%29.80 "Hg10 mi
11:20 AM48 °FPassing clouds.3 mph43%29.80 "HgN/A
10:50 AM45 °FSunny.5 mph53%29.80 "Hg10 mi
10:20 AM43 °FPassing clouds.3 mph61%29.77 "HgN/A
9:50 AM41 °FSunny.3 mph61%29.77 "Hg10 mi
9:20 AM37 °FSunny.1 mph70%29.77 "Hg10 mi
8:50 AM34 °FSunny.2 mph81%29.74 "Hg10 mi
8:20 AM28 °FPassing clouds.3 mph93%29.74 "HgN/A
7:50 AM28 °FSunny.1 mph80%29.74 "Hg10 mi
7:20 AM28 °FClear.2 mph86%29.71 "Hg10 mi
6:50 AM30 °FClear.2 mph80%29.71 "Hg10 mi
6:20 AM30 °FClear.2 mph86%29.71 "Hg10 mi
5:50 AM28 °FClear.1 mph93%29.71 "Hg10 mi
5:20 AM30 °FClear.2 mph80%29.68 "Hg10 mi
4:50 AM30 °FPassing clouds.5 mph86%29.68 "HgN/A
4:20 AM30 °FClear.3 mph80%29.68 "Hg10 mi
3:50 AM28 °FPassing clouds.5 mph86%29.68 "HgN/A
2:50 AM32 °FClear.5 mph80%29.65 "Hg10 mi
2:20 AM32 °FClear.2 mph80%29.65 "Hg10 mi
1:50 AM32 °FClear.6 mph80%29.65 "Hg10 mi
12:50 AM32 °FClear.5 mph75%29.62 "Hg10 mi
12:20 AM32 °FClear.2 mph75%29.62 "Hg10 mi
11:50 PM
Wed, Feb 10
32 °FClear.1 mph75%29.62 "Hg10 mi
11:20 PM34 °FClear.2 mph70%29.59 "Hg10 mi
10:50 PM34 °FClear.2 mph70%29.59 "Hg10 mi
10:20 PM37 °FClear.2 mph60%29.59 "Hg10 mi
9:50 PM39 °FClear.2 mph52%29.59 "Hg10 mi
9:20 PM41 °FClear.8 mph49%29.59 "Hg10 mi
8:50 PM41 °FClear.9 mph49%29.56 "Hg10 mi
8:20 PM43 °FClear.8 mph46%29.56 "Hg10 mi
7:50 PM45 °FClear.8 mph42%29.56 "Hg10 mi
7:20 PM46 °FClear.12 mph40%29.56 "Hg10 mi
6:50 PM48 °FClear.13 mph34%29.53 "Hg10 mi
6:20 PM46 °FClear.12 mph40%29.53 "Hg10 mi
5:50 PM48 °FClear.9 mph37%29.50 "Hg10 mi
5:20 PM52 °FSunny.13 mph32%29.47 "Hg10 mi
4:50 PM52 °FSunny.14 mph35%29.47 "Hg10 mi
4:20 PM54 °FSunny.22 mph28%29.45 "Hg10 mi
Weather by CustomWeather, © 2016

See weather overviewHow to use our weather pages